Location: Unspecified
(42.3650°N, 71.1030°W)
Time: 22:21:58
(UTC+00:00)

Cosmos 1953 Rocket - Pass Details

Date: 02 March 2024
Orbit: 601 x 631 km, 82.5° (Epoch: 15 April)

Event Time Altitude Azimuth Distance (km) Brightness Sun altitude
Rises 22:57:19 0° 186° (S) 2,856 7.1 -4.7°
Reaches altitude 10° 22:59:31 10° 186° (S) 1,961 6.3 -5.1°
Maximum altitude 23:03:52 89° 103° (ESE) 622 3.6 -5.9°
Drops below altitude 10° 23:08:18 10° 8° (N) 1,997 6.1 -6.7°
Sets 23:10:33 0° 9° (N) 2,913 6.9 -7.1°
